Location: Observatoire
(46.1952°N, 5.3391°E)
Time: 13:52:33
(UTC+01:00)

Altair - Pass Details

Date: 21 February 2026
Orbit: 1502 x 1682 km, 47.2° (Epoch: 17 March)

Event Time Altitude Azimuth Distance (km) Brightness Sun altitude
Rises 02:42:14 0° 196° (SSW) 4,624 - -47.4°
Reaches altitude 10° 02:45:51 10° 184° (S) 3,642 - -47.0°
Maximum altitude 02:53:00 27° 132° (SE) 2,594 - -46.1°
Exits shadow 02:55:13 24° 111° (ESE) 2,723 8.9 -45.9°
Drops below altitude 10° 03:00:14 10° 80° (E) 3,692 9.9 -45.2°
Sets 03:03:53 0° 69° (ENE) 4,699 10.7 -44.8°
